SCP
0 0 0 0 0 0 0 0 0 0 0 0 0 0 0 0 0 0 0 0 0 0 0 0 0 0 0 0 0 0 0 0 0 0 0 0 0 0 0 0 0 0 0
0 0 0 0 0 0 0 0 0 0 0 0 0 0 0 0 0 0 0 0 0 0 0 0 0 0 0 0 0 0 0 0 0 0 0 0 0 0 0 0 0 0 0
0 0 0 0 0 0 0 0 0 0 0 0 0 0 0 0 0 0 0 0 0 0 0 0 0 0 0 0 0 0 0 0 0 0 0 0 0 0 0 0 0 0 0
0 0 0 0 0 0 0 0 0 0 0 0 0 0 0 0 0 0 0 0 0 0 0 0 0 0 0 0 0 0 0 0 0 0 0 0 0 0 0 0 0 0 0
0 0 0 0 0 0 0 0 0 0 0 0 0 0 0 0 0 0 0 0 0 0 0 0 0 0 0 0 0 0 0 0 0 0 0 0 0 0 0 0 0 0 0
0 0 0 0 0 0 0 0 0 0 0 0 0 0 0 0 0 0 0 0 0 0 0 0 0 0 0 0 0 0 0 0 0 0 0 0 0 0 0 0 0 0 0
0 0 0 0 0 0 0 0 0 0 0 0 0 0 0 0 0 0 0 0 0 0 0 0 0 0 0 0 0 0 0 0 0 0 0 0 0 0 0 0 0 0 0
0 0 0 0 0 0 0 0 0 0 0 0 0 0 0 0 0 0 0 0 0 0 0 0 0 0 0 0 0 0 0 0 0 0 0 0 0 0 0 0 0 0 0
0 0 0 0 0 0 0 0 0 0 0 0 0 0 0 0 0 0 0 0 0 0 0 0 0 0 0 0 0 0 0 0 0 0 0 0 0 0 0 0 0 0 0
0 0 0 0 0 0 0 0 0 0 0 0 0 0 0 0 0 0 0 0 0 0 0 0 0 0 0 0 0 0 0 0 0 0 0 0 0 0 0 0 0 0 0
0 0 0 0 0 0 0 0 0 0 0 0 0 0 0 0 0 0 0 0 0 0 0 0 0 0 0 0 0 0 0 0 0 0 0 0 0 0 0 0 0 0 0
0 0 0 0 0 0 0 0 0 0 0 0 0 0 0 0 0 0 0 0 0 0 0 0 0 0 0 0 0 0 0 0 0 0 0 0 0 0 0 0 0 0 0
0 0 0 0 0 0 0 0 0 0 0 0 0 0 0 0 0 0 0 0 0 0 0 0 0 0 0 0 0 0 0 0 0 0 0 0 0 0 0 0 0 0 0
0 0 0 0 0 0 0 0 0 0 0 0 0 0 0 0 0 0 0 0 0 0 0 0 0 0 0 0 0 0 0 0 0 0 0 0 0 0 0 0 0 0 0
0 0 0 0 0 0 0 0 0 0 0 0 0 0 0 0 0 0 0 0 0 0 0 0 0 0 0 0 0 0 0 0 0 0 0 0 0 0 0 0 0 0 0
0 0 0 0 0 0 0 0 0 0 0 0 0 0 0 0 0 0 0 0 0 0 0 0 0 0 0 0 0 0 0 0 0 0 0 0 0 0 0 0 0 0 0
0 0 0 0 0 0 0 0 0 0 0 0 0 0 0 0 0 0 0 0 0 0 0 0 0 0 0 0 0 0 0 0 0 0 0 0 0 0 0 0 0 0 0
0 0 0 0 0 0 0 0 0 0 0 0 0 0 0 0 0 0 0 0 0 0 0 0 0 0 0 0 0 0 0 0 0 0 0 0 0 0 0 0 0 0 0
0 0 0 0 0 0 0 0 0 0 0 0 0 0 0 0 0 0 0 0 0 0 0 0 0 0 0 0 0 0 0 0 0 0 0 0 0 0 0 0 0 0 0
0 0 0 0 0 0 0 0 0 0 0 0 0 0 0 0 0 0 0 0 0 0 0 0 0 0 0 0 0 0 0 0 0 0 0 0 0 0 0 0 0 0 0
0 0 0 0 0 0 0 0 0 0 0 0 0 0 0 0 0 0 0 0 0 0 0 0 0 0 0 0 0 0 0 0 0 0 0 0 0 0 0 0 0 0 0
0 0 0 0 0 0 0 0 0 0 0 0 0 0 0 0 0 0 0 0 0 0 0 0 0 0 0 0 0 0 0 0 0 0 0 0 0 0 0 0 0 0 0
0 0 0 0 0 0 0 0 0 0 0 0 0 0 0 0 0 0 0 0 0 0 0 0 0 0 0 0 0 0 0 0 0 0 0 0 0 0 0 0 0 0 0
-0 -0 -0 0 0 0 0 0 0 0 0 0 0 0 0 0 0 0 0 0 0 0 0 0 0 0 0 0 0 0 0 0 0 0 0 0 0 0 0 0 0 0 0
-0 -0 -0 -0 -0 -0 0 0 0 0 0 0 0 0 0 0 0 0 0 0 0 0 0 0 0 0 0 0 0 0 0 0 0 0 0 0 0 0 0 0 0 0 0
-0 -0 -0 -0 -0 -0 -0 0 0 0 0 0 0 0 0 0 0 0 0 0 0 0 0 0 0 0 0 0 0 0 0 0 0 0 0 0 0 0 0 0 0 0 0
Wind_Speed_500mb
85 84 80 72 72 72 67 65 67 69 86 96 99 92 92 88 86 83 78 76 75 74 69 66 66 62 59 52 47 47 44 42 37 31 29 29 30 32 33 31 30 30 29
68 66 59 63 75 77 76 70 72 76 75 92 101 100 95 93 91 88 81 79 78 76 75 76 76 69 60 56 56 56 49 47 42 33 25 11 23 32 34 34 32 32 31
57 53 53 53 63 63 67 73 75 82 75 77 92 89 83 92 91 94 89 85 85 84 82 84 81 68 63 64 64 59 54 49 45 43 28 13 13 15 18 23 25 26 27
68 64 64 57 58 59 56 58 73 84 77 70 83 92 100 102 106 104 99 90 86 90 87 87 79 74 71 71 66 58 55 56 52 46 45 42 28 13 11 20 25 28 30
73 70 68 63 47 47 58 58 57 69 71 76 78 84 92 100 92 98 98 97 90 96 96 89 85 82 76 73 70 66 64 60 55 49 47 46 45 44 39 20 28 29 33
73 67 59 55 56 48 43 43 54 52 52 59 76 83 86 90 93 93 97 100 96 100 104 95 91 88 83 79 76 69 63 62 59 55 50 47 44 42 42 41 31 31 35
63 53 55 53 46 43 52 55 57 58 59 64 71 78 84 91 96 98 99 97 99 105 108 103 100 96 90 84 78 72 69 67 64 59 54 49 47 46 41 38 35 37 36
8 12 21 24 23 26 36 49 54 60 72 78 82 85 87 87 91 92 100 101 101 99 101 104 103 99 93 88 82 77 73 70 65 60 57 52 49 47 46 44 41 37 35
14 9 3 19 26 29 37 45 40 48 59 71 81 84 87 88 85 82 93 101 100 97 96 99 104 102 96 92 87 82 76 71 66 61 56 52 49 47 46 45 44 41 30
9 8 8 10 21 25 30 37 42 52 54 58 66 73 78 82 83 76 88 94 98 97 95 95 99 103 100 93 87 81 76 71 65 61 58 55 51 49 47 46 45 44 44
16 16 13 15 22 25 28 33 40 47 51 56 59 62 68 73 78 82 88 93 88 91 87 82 89 98 99 93 89 82 76 72 67 63 59 55 52 49 47 45 45 45 44
24 22 22 17 15 14 17 23 31 39 47 54 55 58 61 65 72 79 84 89 86 84 79 78 83 91 94 92 90 85 80 76 70 65 59 56 52 50 47 46 45 44 45
26 29 26 26 25 22 15 12 15 23 32 43 51 52 52 57 62 67 72 76 77 76 75 81 86 91 92 94 92 85 80 74 67 61 56 54 51 50 49 48 45 44 43
33 32 30 28 28 28 27 20 11 9 16 25 37 41 43 48 53 56 60 63 68 72 74 77 83 86 88 92 92 86 79 71 65 59 55 53 51 49 48 46 43 43 43
43 40 33 29 28 26 27 27 25 15 5 9 18 28 33 37 41 48 53 57 63 68 72 72 81 84 88 94 93 87 80 72 65 60 56 52 50 49 48 47 46 46 47
45 42 36 31 28 26 25 25 24 22 19 8 4 13 21 27 33 39 46 52 59 65 70 75 76 81 84 89 87 80 73 66 59 56 53 51 51 49 48 48 48 47 44
44 43 37 30 29 26 25 24 24 22 20 15 10 4 11 19 25 32 40 47 53 57 63 68 74 75 78 80 79 75 71 67 64 59 51 51 49 46 46 45 42 43 44
40 38 35 30 27 24 21 21 19 18 16 16 13 8 4 5 16 26 34 41 46 51 58 62 64 67 73 77 75 71 65 61 56 50 46 48 48 45 44 43 43 42 40
39 40 36 31 27 23 22 20 16 14 11 10 9 8 6 2 6 14 22 30 37 42 47 52 57 60 60 60 60 60 57 50 48 46 48 50 45 44 44 45 42 41 38
35 35 33 30 27 26 23 20 19 16 13 10 7 3 1 5 9 13 17 24 28 33 38 43 45 48 51 50 50 51 50 46 47 49 48 48 46 44 40 41 40 37 36
35 33 32 32 30 26 23 21 20 18 17 13 10 6 5 9 12 15 20 23 27 29 33 37 40 42 44 48 49 49 49 50 48 48 47 46 43 42 40 40 40 37 30
36 36 34 33 30 26 23 22 21 18 16 15 12 9 7 6 10 14 17 22 25 29 33 36 39 41 43 45 47 47 46 45 43 43 43 40 36 37 36 36 36 32 29
34 34 34 33 31 29 25 22 20 19 17 15 13 11 8 7 8 11 16 19 23 26 32 34 35 37 39 41 44 45 46 38 36 36 33 30 29 30 31 34 30 30 32
35 34 33 31 30 29 27 26 23 20 17 15 12 9 6 5 5 9 13 16 20 23 26 29 31 31 33 36 39 43 44 38 32 28 26 25 27 30 32 32 34 37 36
34 35 35 33 31 29 26 24 21 20 17 15 12 10 7 6 6 8 11 14 16 18 19 21 24 26 27 29 31 33 40 44 43 36 29 29 28 28 29 29 28 29 28
33 34 34 33 31 30 29 26 23 19 16 15 14 12 10 9 8 9 9 12 14 16 17 17 19 20 21 22 28 31 30 34 34 34 33 31 30 28 26 24 21 20 18
Wind_Direction_500mb
234 237 238 239 237 239 233 232 230 228 222 220 218 217 222 223 225 226 227 228 230 227 224 225 227 226 226 228 230 232 230 228 229 232 243 255 263 267 267 266 265 264 259
238 232 233 229 234 240 243 225 219 232 223 222 224 222 221 223 226 227 227 228 228 229 225 226 228 225 224 226 228 228 224 223 224 224 230 258 273 265 263 263 262 261 260
237 231 230 224 231 233 236 226 217 233 231 224 222 219 221 224 225 226 228 228 224 226 224 226 228 227 227 230 230 228 225 227 224 222 215 196 215 247 264 255 255 255 257
245 239 236 234 235 235 234 233 221 235 236 226 221 219 221 221 225 227 229 228 224 226 227 228 230 230 228 230 231 229 228 228 229 225 226 229 230 209 263 262 258 257 256
242 237 239 239 237 237 237 237 232 235 237 235 230 227 225 228 229 229 231 231 226 225 229 229 229 231 230 231 232 228 225 227 231 229 228 230 237 242 241 256 265 262 258
234 233 235 237 235 228 233 232 228 230 235 236 233 229 231 229 221 230 233 233 229 226 227 228 229 232 232 231 232 230 230 231 232 233 233 235 235 243 243 245 244 260 265
233 229 229 230 236 231 243 243 239 234 234 232 232 235 235 231 232 232 236 234 232 228 229 228 228 229 231 230 232 232 231 233 233 234 236 237 239 246 248 245 245 252 258
221 245 229 233 239 229 224 240 242 240 237 236 237 234 235 233 232 231 237 239 239 237 234 232 229 230 230 230 230 230 231 233 233 234 237 240 242 245 248 247 246 252 256
56 8 261 215 232 230 221 218 222 238 237 238 238 238 236 234 232 229 237 240 242 241 238 235 232 230 230 229 230 230 231 232 233 235 237 240 243 245 246 248 247 245 247
20 358 334 261 244 243 237 233 228 224 225 235 239 240 239 240 237 228 233 236 239 240 239 235 232 230 230 230 229 229 230 231 232 233 235 239 241 244 245 246 246 245 245
3 351 315 292 280 266 258 248 243 235 230 226 235 238 237 238 238 235 231 238 240 242 242 238 235 231 230 228 228 229 229 229 230 231 234 238 240 242 244 245 246 247 246
14 12 14 352 331 300 268 255 245 242 235 228 228 235 238 238 239 238 235 240 242 245 246 238 233 232 230 228 228 227 227 228 228 230 232 236 238 241 243 244 246 249 251
13 17 22 18 17 11 350 305 262 244 236 229 225 230 234 237 238 240 240 241 242 241 241 236 230 226 227 226 225 226 227 228 228 231 234 236 238 239 241 244 247 251 254
18 18 20 25 27 27 25 15 345 274 235 227 222 225 231 236 238 240 238 238 238 236 232 235 230 227 225 223 223 223 222 224 227 229 231 234 237 239 241 244 249 254 256
15 13 13 19 24 29 33 33 30 14 293 229 230 229 229 231 234 236 236 234 233 234 231 229 230 225 223 220 218 217 218 219 221 224 228 232 235 237 239 243 246 250 254
7 6 9 17 18 20 25 29 34 33 28 6 274 245 241 236 232 232 233 233 231 231 227 223 225 225 222 218 218 217 214 215 219 224 229 233 235 239 244 250 249 251 250
5 4 7 15 11 14 17 24 28 30 35 36 31 306 242 236 235 234 232 231 229 228 226 224 219 218 217 212 211 210 213 216 218 222 227 235 238 242 248 248 248 250 252
5 8 12 16 14 14 15 19 19 24 29 34 38 35 7 243 229 227 227 227 225 221 219 217 215 210 207 208 212 214 214 216 219 224 230 240 244 248 247 247 247 249 249
13 15 19 19 16 14 14 13 13 15 16 23 32 54 54 65 184 195 204 209 210 206 204 204 204 206 203 206 208 211 214 217 221 228 231 233 239 242 242 240 241 242 244
18 14 20 22 23 22 17 10 11 10 9 6 353 349 200 192 190 190 191 191 192 195 193 193 197 200 202 205 209 211 215 219 223 226 229 235 237 238 233 236 237 242 244
16 16 19 20 19 17 17 16 13 11 9 1 349 328 269 238 230 219 208 204 204 203 202 201 202 204 208 211 215 223 222 222 223 225 225 227 229 230 228 231 236 241 246
16 22 20 18 16 14 13 11 7 6 359 354 348 339 303 263 237 232 228 221 217 211 211 210 210 211 212 213 214 213 224 223 224 227 230 231 229 226 228 229 232 233 239
18 18 17 15 16 15 14 8 4 359 356 353 347 336 317 282 247 235 228 219 215 215 216 216 217 218 216 214 212 212 213 224 222 225 231 229 219 214 212 212 219 226 228
20 19 17 13 11 11 9 3 358 354 353 349 340 332 320 302 262 233 221 215 214 215 214 214 214 216 217 214 210 207 198 198 206 216 214 211 209 206 213 216 221 225 231
16 13 10 6 3 360 357 353 346 344 341 338 330 324 314 286 255 237 224 219 216 212 214 215 215 211 210 208 205 203 205 206 207 206 204 203 205 209 212 218 225 232 234
2 360 359 355 352 352 349 343 335 329 317 321 319 312 302 290 275 258 244 233 222 215 214 212 212 209 206 199 190 187 194 201 205 199 197 196 202 207 210 212 218 227 227
Wind_Speed_850mb
85 84 80 72 72 72 67 65 67 69 86 96 99 92 92 88 86 83 78 76 75 74 69 66 66 62 59 52 47 47 44 42 37 31 29 29 30 32 33 31 30 30 29
68 66 59 63 75 77 76 70 72 76 75 92 101 100 95 93 91 88 81 79 78 76 75 76 76 69 60 56 56 56 49 47 42 33 25 11 23 32 34 34 32 32 31
57 53 53 53 63 63 67 73 75 82 75 77 92 89 83 92 91 94 89 85 85 84 82 84 81 68 63 64 64 59 54 49 45 43 28 13 13 15 18 23 25 26 27
68 64 64 57 58 59 56 58 73 84 77 70 83 92 100 102 106 104 99 90 86 90 87 87 79 74 71 71 66 58 55 56 52 46 45 42 28 13 11 20 25 28 30
73 70 68 63 47 47 58 58 57 69 71 76 78 84 92 100 92 98 98 97 90 96 96 89 85 82 76 73 70 66 64 60 55 49 47 46 45 44 39 20 28 29 33
73 67 59 55 56 48 43 43 54 52 52 59 76 83 86 90 93 93 97 100 96 100 104 95 91 88 83 79 76 69 63 62 59 55 50 47 44 42 42 41 31 31 35
63 53 55 53 46 43 52 55 57 58 59 64 71 78 84 91 96 98 99 97 99 105 108 103 100 96 90 84 78 72 69 67 64 59 54 49 47 46 41 38 35 37 36
8 12 21 24 23 26 36 49 54 60 72 78 82 85 87 87 91 92 100 101 101 99 101 104 103 99 93 88 82 77 73 70 65 60 57 52 49 47 46 44 41 37 35
14 9 3 19 26 29 37 45 40 48 59 71 81 84 87 88 85 82 93 101 100 97 96 99 104 102 96 92 87 82 76 71 66 61 56 52 49 47 46 45 44 41 30
9 8 8 10 21 25 30 37 42 52 54 58 66 73 78 82 83 76 88 94 98 97 95 95 99 103 100 93 87 81 76 71 65 61 58 55 51 49 47 46 45 44 44
16 16 13 15 22 25 28 33 40 47 51 56 59 62 68 73 78 82 88 93 88 91 87 82 89 98 99 93 89 82 76 72 67 63 59 55 52 49 47 45 45 45 44
24 22 22 17 15 14 17 23 31 39 47 54 55 58 61 65 72 79 84 89 86 84 79 78 83 91 94 92 90 85 80 76 70 65 59 56 52 50 47 46 45 44 45
26 29 26 26 25 22 15 12 15 23 32 43 51 52 52 57 62 67 72 76 77 76 75 81 86 91 92 94 92 85 80 74 67 61 56 54 51 50 49 48 45 44 43
33 32 30 28 28 28 27 20 11 9 16 25 37 41 43 48 53 56 60 63 68 72 74 77 83 86 88 92 92 86 79 71 65 59 55 53 51 49 48 46 43 43 43
43 40 33 29 28 26 27 27 25 15 5 9 18 28 33 37 41 48 53 57 63 68 72 72 81 84 88 94 93 87 80 72 65 60 56 52 50 49 48 47 46 46 47
45 42 36 31 28 26 25 25 24 22 19 8 4 13 21 27 33 39 46 52 59 65 70 75 76 81 84 89 87 80 73 66 59 56 53 51 51 49 48 48 48 47 44
44 43 37 30 29 26 25 24 24 22 20 15 10 4 11 19 25 32 40 47 53 57 63 68 74 75 78 80 79 75 71 67 64 59 51 51 49 46 46 45 42 43 44
40 38 35 30 27 24 21 21 19 18 16 16 13 8 4 5 16 26 34 41 46 51 58 62 64 67 73 77 75 71 65 61 56 50 46 48 48 45 44 43 43 42 40
39 40 36 31 27 23 22 20 16 14 11 10 9 8 6 2 6 14 22 30 37 42 47 52 57 60 60 60 60 60 57 50 48 46 48 50 45 44 44 45 42 41 38
35 35 33 30 27 26 23 20 19 16 13 10 7 3 1 5 9 13 17 24 28 33 38 43 45 48 51 50 50 51 50 46 47 49 48 48 46 44 40 41 40 37 36
35 33 32 32 30 26 23 21 20 18 17 13 10 6 5 9 12 15 20 23 27 29 33 37 40 42 44 48 49 49 49 50 48 48 47 46 43 42 40 40 40 37 30
36 36 34 33 30 26 23 22 21 18 16 15 12 9 7 6 10 14 17 22 25 29 33 36 39 41 43 45 47 47 46 45 43 43 43 40 36 37 36 36 36 32 29
34 34 34 33 31 29 25 22 20 19 17 15 13 11 8 7 8 11 16 19 23 26 32 34 35 37 39 41 44 45 46 38 36 36 33 30 29 30 31 34 30 30 32
35 34 33 31 30 29 27 26 23 20 17 15 12 9 6 5 5 9 13 16 20 23 26 29 31 31 33 36 39 43 44 38 32 28 26 25 27 30 32 32 34 37 36
34 35 35 33 31 29 26 24 21 20 17 15 12 10 7 6 6 8 11 14 16 18 19 21 24 26 27 29 31 33 40 44 43 36 29 29 28 28 29 29 28 29 28
33 34 34 33 31 30 29 26 23 19 16 15 14 12 10 9 8 9 9 12 14 16 17 17 19 20 21 22 28 31 30 34 34 34 33 31 30 28 26 24 21 20 18
Wind_Direction_850mb
234 237 238 239 237 239 233 232 230 228 222 220 218 217 222 223 225 226 227 228 230 227 224 225 227 226 226 228 230 232 230 228 229 232 243 255 263 267 267 266 265 264 259
238 232 233 229 234 240 243 225 219 232 223 222 224 222 221 223 226 227 227 228 228 229 225 226 228 225 224 226 228 228 224 223 224 224 230 258 273 265 263 263 262 261 260
237 231 230 224 231 233 236 226 217 233 231 224 222 219 221 224 225 226 228 228 224 226 224 226 228 227 227 230 230 228 225 227 224 222 215 196 215 247 264 255 255 255 257
245 239 236 234 235 235 234 233 221 235 236 226 221 219 221 221 225 227 229 228 224 226 227 228 230 230 228 230 231 229 228 228 229 225 226 229 230 209 263 262 258 257 256
242 237 239 239 237 237 237 237 232 235 237 235 230 227 225 228 229 229 231 231 226 225 229 229 229 231 230 231 232 228 225 227 231 229 228 230 237 242 241 256 265 262 258
234 233 235 237 235 228 233 232 228 230 235 236 233 229 231 229 221 230 233 233 229 226 227 228 229 232 232 231 232 230 230 231 232 233 233 235 235 243 243 245 244 260 265
233 229 229 230 236 231 243 243 239 234 234 232 232 235 235 231 232 232 236 234 232 228 229 228 228 229 231 230 232 232 231 233 233 234 236 237 239 246 248 245 245 252 258
221 245 229 233 239 229 224 240 242 240 237 236 237 234 235 233 232 231 237 239 239 237 234 232 229 230 230 230 230 230 231 233 233 234 237 240 242 245 248 247 246 252 256
56 8 261 215 232 230 221 218 222 238 237 238 238 238 236 234 232 229 237 240 242 241 238 235 232 230 230 229 230 230 231 232 233 235 237 240 243 245 246 248 247 245 247
20 358 334 261 244 243 237 233 228 224 225 235 239 240 239 240 237 228 233 236 239 240 239 235 232 230 230 230 229 229 230 231 232 233 235 239 241 244 245 246 246 245 245
3 351 315 292 280 266 258 248 243 235 230 226 235 238 237 238 238 235 231 238 240 242 242 238 235 231 230 228 228 229 229 229 230 231 234 238 240 242 244 245 246 247 246
14 12 14 352 331 300 268 255 245 242 235 228 228 235 238 238 239 238 235 240 242 245 246 238 233 232 230 228 228 227 227 228 228 230 232 236 238 241 243 244 246 249 251
13 17 22 18 17 11 350 305 262 244 236 229 225 230 234 237 238 240 240 241 242 241 241 236 230 226 227 226 225 226 227 228 228 231 234 236 238 239 241 244 247 251 254
18 18 20 25 27 27 25 15 345 274 235 227 222 225 231 236 238 240 238 238 238 236 232 235 230 227 225 223 223 223 222 224 227 229 231 234 237 239 241 244 249 254 256
15 13 13 19 24 29 33 33 30 14 293 229 230 229 229 231 234 236 236 234 233 234 231 229 230 225 223 220 218 217 218 219 221 224 228 232 235 237 239 243 246 250 254
7 6 9 17 18 20 25 29 34 33 28 6 274 245 241 236 232 232 233 233 231 231 227 223 225 225 222 218 218 217 214 215 219 224 229 233 235 239 244 250 249 251 250
5 4 7 15 11 14 17 24 28 30 35 36 31 306 242 236 235 234 232 231 229 228 226 224 219 218 217 212 211 210 213 216 218 222 227 235 238 242 248 248 248 250 252
5 8 12 16 14 14 15 19 19 24 29 34 38 35 7 243 229 227 227 227 225 221 219 217 215 210 207 208 212 214 214 216 219 224 230 240 244 248 247 247 247 249 249
13 15 19 19 16 14 14 13 13 15 16 23 32 54 54 65 184 195 204 209 210 206 204 204 204 206 203 206 208 211 214 217 221 228 231 233 239 242 242 240 241 242 244
18 14 20 22 23 22 17 10 11 10 9 6 353 349 200 192 190 190 191 191 192 195 193 193 197 200 202 205 209 211 215 219 223 226 229 235 237 238 233 236 237 242 244
16 16 19 20 19 17 17 16 13 11 9 1 349 328 269 238 230 219 208 204 204 203 202 201 202 204 208 211 215 223 222 222 223 225 225 227 229 230 228 231 236 241 246
16 22 20 18 16 14 13 11 7 6 359 354 348 339 303 263 237 232 228 221 217 211 211 210 210 211 212 213 214 213 224 223 224 227 230 231 229 226 228 229 232 233 239
18 18 17 15 16 15 14 8 4 359 356 353 347 336 317 282 247 235 228 219 215 215 216 216 217 218 216 214 212 212 213 224 222 225 231 229 219 214 212 212 219 226 228
20 19 17 13 11 11 9 3 358 354 353 349 340 332 320 302 262 233 221 215 214 215 214 214 214 216 217 214 210 207 198 198 206 216 214 211 209 206 213 216 221 225 231
16 13 10 6 3 360 357 353 346 344 341 338 330 324 314 286 255 237 224 219 216 212 214 215 215 211 210 208 205 203 205 206 207 206 204 203 205 209 212 218 225 232 234
2 360 359 355 352 352 349 343 335 329 317 321 319 312 302 290 275 258 244 233 222 215 214 212 212 209 206 199 190 187 194 201 205 199 197 196 202 207 210 212 218 227 227